Regional Weather Roundup
Issued by NWS Goodland, KS

Home | Current Version | Previous Version | Text Only | Print | Product List | Glossary Off
Versions: 1 2 3 4 5 6 7 8 9 10 11 12 13 14 15 16 17 18 19 20 21 22 23 24 25 26 27 28 29 30 31 32 33 34 35 36 37 38 39 40 41 42 43 44 45 46 47 48 49 50

367
ASUS43 KGLD 221808
RWRGLD

GOODLAND FORECAST AREA HOURLY WEATHER ROUNDUP
NATIONAL WEATHER SERVICE GOODLAND KS
1200 PM MDT SUN OCT 22 2017

...OFFICIAL OBSERVATIONS...

CITY           SKY/WX    TMP DP  RH WIND       PRES   REMARKS
GOODLAND KS    SUNNY     63  16  16 SW22G29   30.16F
HILL CITY KS   SUNNY     67  23  19 W9        30.17F
IMPERIAL NEB   SUNNY     66  18  15 SW15G23   30.11F
MCCOOK NEB     SUNNY     66  23  19 SW17G28   30.13F
AKRON CO       SUNNY     63  17  17 SW15      30.14F
BURLINGTON CO  SUNNY     62  17  17 SW16G26   30.19F
LIMON CO       SUNNY     59  15  18 S5        30.18F
$$

...UNOFFICIAL OBSERVATIONS...

CITY           SKY/WX    TMP DP  RH WIND       PRES   REMARKS
COLBY KS       SUNNY     64  27  24 SW20      30.18F
LENORA KS        N/A     65  32  29 CALM        N/A
NORTON KS      SUNNY     66  14  13 SW12G17   30.14F
SHARON SPRINGS   N/A     63  19  18 S12G23      N/A
TRENTON NEB      N/A     66  32  28 W7          N/A
KIT CARSON CO    N/A     60  23  24 MISG        N/A
YUMA CO        FAIR      61   9  12 SW13      30.13F
$$




USA.gov is the U.S. government's official web portal to all federal, state and local government web resources and services.